Showing default

XINZHENGCHENG 02, 68412

Orbit data source: Space-Track

XINZHENGCHENG 02, 68412 is a payload satellite owned by IMI/CAS (CN) in LEO that was launched on Mon, 30 Mar 2026 UTC via a LIJIAN-2 launch vehicle from the Jiuquan Satellite Launch Center, China (JSC). Payload-class satellites include a variety of spacecraft equipped with specific instruments for various scientific and technological missions. These include communications satellites like Starlink; space stations such as the ISS; scientific satellites like the Hubble; Earth observation satellites from companies like Planet Labs, Umbra, and HawkEye 360; GPS; miniature CubeSats for education and research; and military/defense satellites.

Loading next visibility...
Identifier
68412, 2026-066A
Orbit
LEO
Country
Flag of CNCN / PRC
Related business
Manufacturer
IMI/CAS
Mission
Operational spacecraft
Bus & Motor
XZC2, Unknown motor
Mass
4,200 kg wet, ~4,200 kg dry
Launch date (UTC)
2026-03-30 (2 weeks ago)
Launch vehicle
LIJIAN-2
Launch site
Jiuquan Satellite Launch Center, China (JSC)
Object type
Payload
Rocket body
Debris
Shape & HBR
Unknown
Radar Cross Section
RCS unknown

Expand to show TLE details & history
Last TLE update: 6 hours ago

TLE from 6 hours ago
0 XINZHENGCHENG 02
1 68412U 26066A   26102.27571537  .00000414  00000-0  41190-4 0  9997
2 68412  84.9621 269.6799 0027333 120.8156 239.5763 14.88348848  1925
Epoch: 2026-04-12T06:37Z
TLE epoch observation values (Epoch: 2026-04-12T06:37:01.807Z)
Latitude
-0.00004°
Longitude
-30.06063°
Altitude
615.901 km
Speed
7.546 km/s
True Right ascension
17h 58m 43s
True Declination
0° 00' 00"
Sunlit
Object was in daylight at epoch
Visualization orbit readout
Latitude
Unknown
Longitude
Unknown
Altitude
Unknown
Speed
Unknown
Apparent Right ascension
Unknown
Apparent Declination
Unknown
Sunlit
N/A
Visualization observer readout
Local Sidereal Time
19:09:02
Azimuth
Unknown
Elevation
Unknown
Doppler factor
Unknown
Orbital elements
Apogee altitude
619.091 km
Perigee altitude
580.945 km
Semi-major axis
6,978.155 km
Eccentricity
0.00273
Inclination
84.9621°
RAAN
269.6799°
Arg. of periapsis
120.8156°
True anomaly
239.30668°
Mean anomaly
239.5763°
Eccentric anomaly
239.44144°
Mean motion
3.72334 °/min
Orbital period
96.69 mins
BSTAR
0.00004119
Loading maneuver chart data...
Computing Atmospheric mass density...
Loading historical data...
Loading historical data...
Loading historical data...
Loading historical data...
Loading historical data...
Loading historical data...
Loading historical data...
Other satellites on launch #66 in the year 2026 (2026-03-30 UTC)

Documentation

Showing up to 5 results
|